SIA913 RPLL-WSSS

Flight info

Callsign SIA913
Flight time N/A
Altitude 36000
Route BUCAL2R BUCAL M646 TOKON M767 TOMAN KARTO2A
Aircraft B77W/H-SDE1E2E3FGHIJ2J3J4J5M1RWXY/LB1D1

Departure

Time 2026-05-01 07:56
Airport Ninoy Aquino International Airport (RPLL)

Arrival

Time N/A
Airport Singapore Changi Airport (WSSS)
Time Latitude Longitude Altitude Speed Heading
2026-05-01 07:37 14.51558 121.01605 88 ft 0 kts 46°
2026-05-01 07:44 14.51547 121.01592 88 ft 2 kts 46°
2026-05-01 07:44 14.51531 121.01567 88 ft 2 kts 73°
2026-05-01 07:45 14.51527 121.01552 88 ft 2 kts 85°
2026-05-01 07:45 14.51527 121.01537 88 ft 2 kts 97°
2026-05-01 07:45 14.51530 121.01521 88 ft 2 kts 110°
2026-05-01 07:45 14.51537 121.01508 88 ft 2 kts 122°
2026-05-01 07:46 14.51545 121.01496 88 ft 1 kts 134°
2026-05-01 07:46 14.51548 121.01494 88 ft 0 kts 136°
2026-05-01 07:47 14.51547 121.01494 88 ft 0 kts 136°
2026-05-01 07:47 14.51542 121.01499 88 ft 3 kts 135°
2026-05-01 07:48 14.51413 121.01633 88 ft 20 kts 134°
2026-05-01 07:48 14.51320 121.01730 88 ft 18 kts 135°
2026-05-01 07:48 14.51235 121.01818 88 ft 16 kts 135°
2026-05-01 07:49 14.51158 121.01897 88 ft 14 kts 135°
2026-05-01 07:49 14.51041 121.01971 88 ft 8 kts 219°
2026-05-01 07:49 14.50994 121.01902 88 ft 14 kts 240°
2026-05-01 07:50 14.50936 121.01798 88 ft 17 kts 240°
2026-05-01 07:50 14.50822 121.01594 87 ft 15 kts 239°
2026-05-01 07:50 14.50771 121.01503 87 ft 13 kts 241°
2026-05-01 07:51 14.50727 121.01421 88 ft 12 kts 240°
2026-05-01 07:51 14.50683 121.01341 87 ft 13 kts 240°
2026-05-01 07:51 14.50627 121.01243 87 ft 18 kts 240°
2026-05-01 07:52 14.50487 121.00991 87 ft 19 kts 240°
2026-05-01 07:52 14.50422 121.00872 87 ft 18 kts 240°
2026-05-01 07:52 14.50361 121.00764 87 ft 16 kts 240°
2026-05-01 07:53 14.50247 121.00558 87 ft 19 kts 240°
2026-05-01 07:53 14.50174 121.00428 87 ft 20 kts 239°
2026-05-01 07:53 14.50107 121.00308 87 ft 18 kts 240°
2026-05-01 07:53 14.50046 121.00197 87 ft 17 kts 240°
2026-05-01 07:54 14.49937 121.00002 88 ft 14 kts 236°
2026-05-01 07:55 14.49799 121.00015 88 ft 5 kts 118°
2026-05-01 07:55 14.49834 121.00102 88 ft 34 kts 60°
2026-05-01 07:56 14.51131 121.02442 576 ft 173 kts 63°
2026-05-01 07:56 14.52377 121.04685 1758 ft 192 kts 62°
2026-05-01 07:57 14.53076 121.05945 2111 ft 211 kts 61°
2026-05-01 07:57 14.54665 121.08807 2935 ft 247 kts 61°
2026-05-01 07:58 14.56150 121.12107 4237 ft 259 kts 83°
2026-05-01 07:58 14.55094 121.15581 5655 ft 270 kts 128°
2026-05-01 07:59 14.52459 121.18376 7141 ft 276 kts 133°
2026-05-01 07:59 14.49714 121.21209 8510 ft 283 kts 132°
2026-05-01 08:00 14.42254 121.22926 11183 ft 309 kts 200°
2026-05-01 08:01 14.36871 121.18686 12719 ft 348 kts 220°
2026-05-01 08:01 14.34976 121.16981 13181 ft 365 kts 220°
2026-05-01 08:01 14.33008 121.15209 13691 ft 380 kts 220°
2026-05-01 08:02 14.28870 121.11485 14729 ft 410 kts 220°
2026-05-01 08:02 14.26722 121.09551 15545 ft 416 kts 220°
2026-05-01 08:03 14.22362 121.05626 17279 ft 423 kts 220°
2026-05-01 08:03 14.20139 121.03626 18075 ft 427 kts 220°
2026-05-01 08:03 14.15612 120.99554 19665 ft 436 kts 220°
2026-05-01 08:04 14.11014 120.95419 21138 ft 444 kts 220°
2026-05-01 08:04 14.06311 120.91190 22602 ft 452 kts 221°
2026-05-01 08:05 14.01306 120.87251 24063 ft 458 kts 214°
2026-05-01 08:05 13.98650 120.85385 24744 ft 462 kts 214°
2026-05-01 08:05 13.96007 120.83531 25363 ft 467 kts 214°
2026-05-01 08:06 13.90590 120.79728 26758 ft 473 kts 215°
2026-05-01 08:06 13.85129 120.75890 28140 ft 479 kts 215°
2026-05-01 08:07 13.79592 120.71995 29478 ft 484 kts 215°
2026-05-01 08:07 13.74034 120.68089 31145 ft 480 kts 214°
2026-05-01 08:08 13.71298 120.66166 32187 ft 472 kts 214°
2026-05-01 08:08 13.65940 120.62402 33995 ft 463 kts 214°
2026-05-01 08:09 13.60621 120.58698 35326 ft 462 kts 212°
2026-05-01 08:09 13.57767 120.57144 35857 ft 463 kts 207°
2026-05-01 08:09 13.54845 120.55727 35885 ft 464 kts 206°
2026-05-01 08:10 13.43240 120.50153 35897 ft 460 kts 206°
2026-05-01 08:11 13.31622 120.44571 35864 ft 461 kts 206°
2026-05-01 08:12 13.22887 120.40376 35849 ft 461 kts 206°
2026-05-01 08:13 13.14154 120.36183 35855 ft 460 kts 206°
2026-05-01 08:13 13.05428 120.31998 35859 ft 460 kts 205°
2026-05-01 08:14 12.99639 120.29224 35862 ft 462 kts 205°
2026-05-01 08:14 12.93772 120.26413 35855 ft 463 kts 205°
2026-05-01 08:15 12.85022 120.22224 35852 ft 462 kts 206°
2026-05-01 08:16 12.79201 120.19438 35850 ft 461 kts 205°
2026-05-01 08:16 12.73362 120.16646 35849 ft 463 kts 205°
2026-05-01 08:17 12.67544 120.13866 35850 ft 462 kts 205°
2026-05-01 08:17 12.61733 120.11089 35849 ft 462 kts 205°
2026-05-01 08:18 12.55901 120.08305 35846 ft 462 kts 205°
2026-05-01 08:19 12.44181 120.02712 35845 ft 463 kts 205°
2026-05-01 08:19 12.38341 119.99928 35841 ft 463 kts 205°
2026-05-01 08:20 12.32507 119.97148 35840 ft 464 kts 205°
2026-05-01 08:20 12.26655 119.94361 35834 ft 463 kts 205°
2026-05-01 08:21 12.20777 119.91563 35832 ft 463 kts 205°
2026-05-01 08:21 12.14963 119.88796 35830 ft 463 kts 205°
2026-05-01 08:22 12.09122 119.86018 35829 ft 464 kts 205°
2026-05-01 08:22 12.03249 119.83227 35824 ft 463 kts 205°
2026-05-01 08:23 11.97393 119.80444 35825 ft 465 kts 205°
2026-05-01 08:23 11.91518 119.77653 35825 ft 463 kts 205°
2026-05-01 08:24 11.85650 119.74868 35827 ft 466 kts 205°
2026-05-01 08:24 11.79750 119.72069 35828 ft 465 kts 205°
2026-05-01 08:25 11.73928 119.69268 35819 ft 464 kts 209°
2026-05-01 08:25 11.68776 119.65311 35824 ft 466 kts 226°
2026-05-01 08:26 11.64795 119.60144 35824 ft 465 kts 233°
2026-05-01 08:26 11.60983 119.54794 35822 ft 466 kts 233°
2026-05-01 08:27 11.57172 119.49456 35822 ft 465 kts 233°
2026-05-01 08:27 11.53380 119.44151 35820 ft 465 kts 233°
2026-05-01 08:28 11.49568 119.38823 35823 ft 466 kts 233°
2026-05-01 08:28 11.45747 119.33486 35830 ft 464 kts 233°
2026-05-01 08:29 11.41947 119.28182 35831 ft 465 kts 233°
2026-05-01 08:29 11.38121 119.22845 35829 ft 466 kts 233°
2026-05-01 08:30 11.34318 119.17542 35831 ft 465 kts 233°
2026-05-01 08:30 11.30485 119.12201 35835 ft 465 kts 233°
2026-05-01 08:31 11.26677 119.06899 35833 ft 465 kts 233°
2026-05-01 08:31 11.22873 119.01603 35831 ft 465 kts 233°
2026-05-01 08:32 11.19041 118.96271 35832 ft 465 kts 233°
2026-05-01 08:32 11.15219 118.90956 35831 ft 464 kts 233°
2026-05-01 08:33 11.11422 118.85680 35829 ft 464 kts 233°
2026-05-01 08:33 11.07606 118.80379 35825 ft 465 kts 233°
2026-05-01 08:34 11.03773 118.75058 35829 ft 465 kts 233°
2026-05-01 08:34 10.99965 118.69774 35823 ft 466 kts 233°
2026-05-01 08:35 10.96127 118.64450 35826 ft 465 kts 233°
2026-05-01 08:35 10.92319 118.59171 35825 ft 466 kts 233°
2026-05-01 08:36 10.88473 118.53843 35826 ft 466 kts 233°
2026-05-01 08:36 10.84629 118.48518 35820 ft 465 kts 233°
2026-05-01 08:37 10.80809 118.43231 35828 ft 465 kts 233°
2026-05-01 08:37 10.76963 118.37910 35824 ft 466 kts 233°
2026-05-01 08:38 10.73118 118.32593 35822 ft 465 kts 233°
2026-05-01 08:38 10.69272 118.27277 35821 ft 466 kts 233°
2026-05-01 08:39 10.65442 118.21986 35818 ft 467 kts 233°
2026-05-01 08:39 10.61591 118.16668 35817 ft 466 kts 233°
2026-05-01 08:40 10.55834 118.08723 35811 ft 467 kts 233°
2026-05-01 08:40 10.51956 118.03374 35808 ft 468 kts 233°
2026-05-01 08:41 10.48105 117.98066 35808 ft 469 kts 233°
2026-05-01 08:41 10.44249 117.92754 35807 ft 468 kts 233°
2026-05-01 08:42 10.40391 117.87440 35805 ft 468 kts 233°
2026-05-01 08:42 10.36504 117.82089 35807 ft 470 kts 233°
2026-05-01 08:43 10.32638 117.76729 35805 ft 470 kts 234°
2026-05-01 08:43 10.28814 117.71383 35809 ft 469 kts 233°
2026-05-01 08:44 10.24963 117.66003 35810 ft 469 kts 233°
2026-05-01 08:44 10.21122 117.60644 35819 ft 471 kts 234°
2026-05-01 08:45 10.17278 117.55282 35817 ft 472 kts 233°
2026-05-01 08:45 10.13404 117.49882 35816 ft 474 kts 234°
2026-05-01 08:46 10.09510 117.44456 35816 ft 474 kts 233°
2026-05-01 08:46 10.05622 117.39043 35817 ft 475 kts 233°
2026-05-01 08:47 10.01745 117.33648 35818 ft 476 kts 233°
2026-05-01 08:47 9.97850 117.28228 35820 ft 475 kts 233°
2026-05-01 08:48 9.93962 117.22822 35818 ft 473 kts 233°
2026-05-01 08:48 9.90090 117.17441 35822 ft 472 kts 233°
2026-05-01 08:49 9.86218 117.12061 35825 ft 474 kts 233°
2026-05-01 08:49 9.82323 117.06653 35823 ft 475 kts 233°
2026-05-01 08:50 9.78418 117.01234 35814 ft 474 kts 233°
2026-05-01 08:50 9.74528 116.95837 35807 ft 475 kts 233°
2026-05-01 08:51 9.70637 116.90440 35806 ft 474 kts 233°
2026-05-01 08:51 9.66752 116.85055 35807 ft 474 kts 233°
2026-05-01 08:52 9.62866 116.79671 35806 ft 474 kts 233°
2026-05-01 08:52 9.58963 116.74267 35807 ft 476 kts 233°
2026-05-01 08:53 9.55071 116.68879 35805 ft 475 kts 233°
2026-05-01 08:53 9.51151 116.63456 35804 ft 476 kts 233°
2026-05-01 08:54 9.47215 116.58012 35807 ft 476 kts 233°
2026-05-01 08:54 9.43297 116.52595 35807 ft 477 kts 233°
2026-05-01 08:55 9.39405 116.47218 35806 ft 474 kts 233°
2026-05-01 08:55 9.35501 116.41826 35805 ft 473 kts 233°
2026-05-01 08:56 9.31604 116.36446 35807 ft 475 kts 233°
2026-05-01 08:56 9.27684 116.31036 35920 ft 474 kts 233°
2026-05-01 08:57 9.25717 116.28332 36067 ft 477 kts 233°
2026-05-01 08:57 9.23766 116.25661 36214 ft 477 kts 233°
2026-05-01 08:57 9.21782 116.22948 36362 ft 477 kts 233°
2026-05-01 08:57 9.19769 116.20195 36515 ft 477 kts 233°
2026-05-01 08:58 9.17805 116.17509 36663 ft 476 kts 233°
2026-05-01 08:58 9.15826 116.14802 36812 ft 476 kts 233°
2026-05-01 08:58 9.13868 116.12125 36961 ft 476 kts 233°
2026-05-01 08:58 9.11914 116.09454 37110 ft 475 kts 234°
2026-05-01 08:59 9.09939 116.06754 37261 ft 473 kts 234°
2026-05-01 08:59 9.08001 116.04105 37411 ft 473 kts 233°
2026-05-01 08:59 9.06027 116.01407 37563 ft 473 kts 234°
2026-05-01 08:59 9.04082 115.98749 37716 ft 473 kts 234°
2026-05-01 09:00 9.02125 115.96076 37829 ft 475 kts 234°
2026-05-01 09:00 9.00150 115.93379 37829 ft 475 kts 234°
2026-05-01 09:00 8.96241 115.88042 37830 ft 475 kts 234°
2026-05-01 09:01 8.92295 115.82657 37819 ft 475 kts 234°
2026-05-01 09:01 8.88353 115.77276 37810 ft 475 kts 234°
2026-05-01 09:02 8.84437 115.71934 37812 ft 474 kts 234°
2026-05-01 09:02 8.80507 115.66576 37813 ft 472 kts 234°
2026-05-01 09:03 8.76604 115.61256 37819 ft 472 kts 234°
2026-05-01 09:03 8.72702 115.55939 37824 ft 472 kts 234°
2026-05-01 09:04 8.68803 115.50630 37823 ft 472 kts 234°
2026-05-01 09:04 8.64880 115.45289 37823 ft 472 kts 234°
2026-05-01 09:05 8.60989 115.39994 37823 ft 471 kts 234°
2026-05-01 09:05 8.57058 115.34647 37824 ft 472 kts 234°
2026-05-01 09:06 8.53148 115.29330 37825 ft 471 kts 234°
2026-05-01 09:06 8.49263 115.24049 37824 ft 471 kts 234°
2026-05-01 09:07 8.45334 115.18711 37819 ft 471 kts 234°
2026-05-01 09:07 8.41441 115.13425 37814 ft 472 kts 234°
2026-05-01 09:08 8.37527 115.08111 37813 ft 472 kts 234°
2026-05-01 09:08 8.33585 115.02761 37813 ft 473 kts 234°
2026-05-01 09:09 8.29666 114.97443 37814 ft 473 kts 234°
2026-05-01 09:09 8.25740 114.92120 37812 ft 473 kts 234°
2026-05-01 09:10 8.21820 114.86806 37821 ft 472 kts 234°
2026-05-01 09:10 8.17900 114.81495 37826 ft 472 kts 234°
2026-05-01 09:11 8.13978 114.76182 37828 ft 472 kts 234°
2026-05-01 09:11 8.10045 114.70856 37827 ft 472 kts 234°
2026-05-01 09:12 8.06129 114.65556 37826 ft 473 kts 234°
2026-05-01 09:12 8.02203 114.60243 37827 ft 474 kts 234°
2026-05-01 09:13 7.98254 114.54902 37827 ft 473 kts 234°
2026-05-01 09:13 7.94323 114.49587 37826 ft 473 kts 234°
2026-05-01 09:14 7.90384 114.44263 37816 ft 474 kts 234°
2026-05-01 09:14 7.86456 114.38957 37804 ft 474 kts 234°
2026-05-01 09:15 7.82494 114.33604 37806 ft 475 kts 234°
2026-05-01 09:15 7.78550 114.28279 37805 ft 476 kts 234°
2026-05-01 09:16 7.74583 114.22926 37805 ft 474 kts 234°
2026-05-01 09:17 7.68656 114.14930 37805 ft 474 kts 234°
2026-05-01 09:17 7.62739 114.06952 37805 ft 474 kts 234°
2026-05-01 09:18 7.56817 113.98972 37806 ft 475 kts 234°
2026-05-01 09:19 7.50856 113.90942 37810 ft 477 kts 234°
2026-05-01 09:20 7.44904 113.82929 37811 ft 477 kts 234°
2026-05-01 09:21 7.36971 113.72257 37821 ft 476 kts 234°
2026-05-01 09:21 7.31030 113.64269 37828 ft 477 kts 234°
2026-05-01 09:22 7.23073 113.53575 37828 ft 479 kts 234°
2026-05-01 09:23 7.17098 113.45551 37828 ft 478 kts 235°
2026-05-01 09:24 7.11097 113.37495 37828 ft 478 kts 235°
2026-05-01 09:25 7.03108 113.26777 37828 ft 480 kts 234°
2026-05-01 09:26 6.97087 113.18703 37830 ft 480 kts 234°
2026-05-01 09:26 6.91099 113.10679 37829 ft 479 kts 234°
2026-05-01 09:27 6.85080 113.02616 37825 ft 480 kts 235°
2026-05-01 09:28 6.81096 112.97281 37825 ft 480 kts 234°
2026-05-01 09:28 6.77073 112.91895 37825 ft 478 kts 234°